Overview Statistics Trail Chart Weather Telemetry Raw packets
 

This is the latest recevied weather packets stored in our database for station/object WA6OOO. If no packets are shown the sender has not sent any weather packets the latest 10 day(s).

<< 68 69 70 71 72 73 74 >>
Time Temp. Humidity Pressure Rain* Wind** Luminosity Snow
1788192077 20.56° C 82% 1017.2 hPa 0 mm - 448 W/m² -
1788191777 20.56° C 82% 1017.1 hPa 0 mm - 370 W/m² -
1788191472 20° C 82% 1017.4 hPa 0 mm - 284 W/m² -
1788191168 20° C 83% 1017.3 hPa 0 mm - 233 W/m² -
1788190868 20° C 85% 1017.1 hPa 0 mm - 196 W/m² -
1788190567 19.44° C 85% 1017.2 hPa 0 mm - 179 W/m² -
1788190264 19.44° C 85% 1017.1 hPa 0 mm - 134 W/m² -
1788189959 18.89° C 86% 1017.3 hPa 0 mm - 149 W/m² -
1788189655 18.89° C 86% 1017.3 hPa 0 mm - 111 W/m² -
1788189354 18.89° C 87% 1017.1 hPa 0 mm - 53 W/m² -
1788189049 18.89° C 88% 1016.9 hPa 0 mm - 51 W/m² -
1788188744 18.89° C 87% 1017 hPa 0 mm - 49 W/m² -
1788188441 19.44° C 84% 1017 hPa 0 mm - 46 W/m² -
1788188134 18.89° C 85% 1016.9 hPa 0 mm - 44 W/m² -
1788187831 18.89° C 86% 1016.7 hPa 0 mm - 42 W/m² -
1788187526 18.33° C 86% 1016.9 hPa 0 mm - 41 W/m² -
1788187222 18.33° C 86% 1016.7 hPa 0 mm - 42 W/m² -
1788186921 17.78° C 88% 1016.7 hPa 0 mm - 47 W/m² -
1788186617 17.78° C 89% 1016.7 hPa 0 mm - 50 W/m² -
1788186314 17.22° C 92% 1016.6 hPa 0 mm - 47 W/m² -
1788186008 17.22° C 95% 1016.5 hPa 0 mm - 42 W/m² -
1788185702 16.67° C 95% 1016.3 hPa 0 mm - 37 W/m² -
1788185397 16.11° C 95% 1016.4 hPa 0 mm - 31 W/m² -
1788185096 16.67° C 95% 1016.2 hPa 0 mm - 25 W/m² -
1788184800 16.11° C 95% 1016.5 hPa 0 mm - 23 W/m² -

* Rain latest hour (hover to see other rain measurements)
** Current wind speed in m/s (hover to see current wind gust speed)